Wind_Speed
46 40 42 48 50 50 50 49 48 47 48 50 49 47 47 46 45 42 40 40 39 38 36 34 33 31 30 30 29 29 30 30 30 30 29 27 27 25 23 21 21 21 19 18 17 16 17 17 18 18 18 18
54 45 42 46 49 50 49 48 46 46 47 49 49 47 47 46 44 42 40 40 39 38 37 35 33 32 31 30 30 30 30 31 31 31 30 29 28 26 24 23 23 22 20 18 18 17 17 18 18 19 19 19
59 52 46 44 47 49 49 48 46 46 49 49 48 48 47 46 44 42 40 40 39 38 37 35 34 33 32 31 31 31 31 31 32 32 31 30 29 28 26 24 24 22 21 20 19 18 18 18 18 18 19 20
62 58 51 46 45 47 48 47 46 47 50 49 48 48 47 46 43 41 39 39 39 38 37 35 34 33 33 32 32 32 32 32 32 32 32 31 30 29 27 26 25 24 23 22 21 20 20 20 19 18 19 19
60 60 57 51 44 44 46 46 47 49 50 48 48 47 46 46 43 40 38 38 38 37 36 35 34 33 33 33 33 33 32 32 32 33 33 32 31 30 29 28 27 26 24 23 22 22 22 21 20 19 19 19
54 56 58 56 47 41 43 46 49 50 49 47 47 47 46 45 42 40 38 37 37 36 35 34 34 33 33 33 33 33 33 33 33 33 33 32 32 32 31 30 28 27 26 25 24 24 23 22 21 20 19 20
47 49 52 55 52 45 42 45 49 49 47 46 46 47 47 45 43 40 38 37 36 36 35 35 34 33 33 33 33 33 33 33 33 33 33 33 33 33 32 31 30 29 28 27 26 25 25 23 22 21 21 20
41 46 46 49 51 50 45 45 51 50 47 47 48 48 48 47 44 41 38 37 36 35 35 34 34 33 33 32 32 33 33 33 34 34 34 34 34 33 33 32 32 30 29 29 27 27 26 25 24 23 22 22
37 42 43 44 47 50 47 47 51 50 47 48 49 50 49 47 45 42 39 37 36 35 34 34 34 34 33 32 32 33 33 33 34 34 34 34 34 34 34 34 33 32 31 30 29 28 27 26 25 25 24 24
36 40 41 42 45 47 48 49 51 49 49 50 50 51 50 48 45 42 40 38 36 35 34 34 34 34 33 33 33 33 33 33 34 34 34 34 34 34 34 34 34 33 32 31 30 29 28 27 27 26 25 25
34 39 41 42 44 46 47 51 50 47 51 53 53 53 51 48 45 41 40 38 37 36 34 34 33 34 34 33 33 33 34 34 34 34 34 34 34 34 34 34 34 34 33 32 32 31 30 29 28 27 26 26
32 36 40 41 43 44 46 51 49 45 50 53 53 53 50 47 44 41 39 38 37 36 35 34 34 34 34 34 33 34 34 34 34 34 35 34 34 34 34 34 34 34 34 33 33 32 31 30 29 28 28 27
32 34 36 38 42 45 46 50 49 44 46 48 48 50 49 47 43 40 38 37 37 37 36 35 34 34 34 34 34 34 34 35 35 35 35 35 35 34 34 34 35 34 34 34 34 33 33 31 30 29 29 28
33 34 35 37 40 45 46 48 48 45 45 46 47 48 48 46 42 41 40 38 38 38 37 37 36 35 35 34 34 34 35 35 36 35 35 35 35 34 34 34 35 34 34 34 34 34 33 32 31 30 30 29
32 34 36 38 40 44 47 47 46 46 46 47 50 50 47 45 44 43 42 40 40 39 38 38 37 37 36 35 35 34 35 35 36 36 36 35 35 35 35 35 35 35 34 34 34 34 34 33 32 32 31 30
29 32 35 38 40 43 46 47 46 46 47 46 48 50 48 45 46 45 43 42 41 40 40 39 38 38 38 37 36 36 36 35 36 37 37 36 36 36 35 35 35 35 34 34 34 35 35 35 34 33 32 31
31 32 34 37 39 43 46 47 47 46 47 46 44 46 48 47 47 45 43 42 41 40 40 39 40 40 39 39 38 38 37 37 37 37 38 38 37 37 36 36 36 35 35 34 34 35 36 36 35 34 33 32
33 33 33 34 37 40 44 47 48 47 46 47 44 44 47 48 47 45 43 42 41 40 39 39 40 41 41 41 41 40 39 38 38 38 39 39 39 39 38 37 37 36 36 35 35 35 36 36 36 35 34 33
33 31 29 31 33 38 43 46 48 49 48 48 46 44 45 48 47 43 41 41 40 39 39 40 40 41 41 42 43 43 41 40 39 39 39 40 40 40 40 39 38 38 37 37 36 35 35 36 36 36 35 34
30 30 30 34 34 36 43 47 47 49 49 49 50 48 44 44 44 40 39 39 39 40 40 41 40 40 40 41 42 43 42 41 40 40 40 40 41 41 41 40 39 39 38 38 37 36 36 36 37 37 36 35
30 30 31 35 35 35 39 44 44 46 48 49 51 51 47 44 41 39 39 39 40 41 42 41 41 41 41 41 41 42 42 42 41 40 40 41 41 41 41 41 40 40 39 39 38 38 37 37 37 37 36 35
36 35 35 35 39 42 41 40 40 41 45 48 50 51 51 49 47 44 43 43 43 42 42 42 42 42 42 42 42 42 42 42 41 41 41 41 42 42 42 41 41 40 39 39 39 39 38 38 37 37 37 37
28 30 35 35 39 45 43 41 41 41 42 44 47 49 51 52 52 50 48 47 45 44 43 44 44 44 43 43 43 43 43 42 42 42 42 41 42 42 42 42 41 40 40 39 39 39 39 39 38 38 38 38
17 21 28 32 35 38 39 38 40 45 46 44 45 48 50 52 52 53 51 49 48 46 45 45 45 45 44 44 44 44 43 43 42 42 42 41 41 41 41 41 41 41 40 40 39 39 39 40 40 40 39 39
17 21 28 31 32 33 33 30 31 39 44 45 46 48 50 52 52 53 53 51 49 47 47 46 46 45 44 43 43 43 43 43 42 42 41 41 41 41 41 41 42 42 42 41 40 40 40 40 40 40 39 40
19 21 28 32 31 31 32 28 25 29 34 37 41 44 47 50 51 53 53 51 49 47 46 46 45 45 44 43 42 42 42 42 42 41 41 41 41 41 41 41 41 41 42 42 42 41 41 40 40 40 40 40
30 23 24 27 28 29 33 34 29 28 29 28 29 32 39 47 51 52 51 49 48 46 44 43 42 42 41 41 41 41 41 41 41 41 40 40 41 41 41 41 41 41 42 43 43 42 41 41 41 41 41 40
41 34 29 27 26 23 26 34 35 32 29 25 22 21 27 38 46 50 49 48 48 46 42 41 40 39 39 39 39 39 39 39 40 41 40 40 41 41 41 42 42 42 42 43 43 43 42 42 42 41 42 42
41 39 37 33 30 24 20 24 28 29 30 27 24 22 22 27 34 40 42 43 45 44 41 40 40 38 37 37 37 37 37 37 37 38 39 40 40 41 41 42 42 42 42 43 43 43 43 43 42 43 44 44
39 37 37 36 35 32 25 22 23 25 27 26 26 26 24 23 25 29 32 35 38 40 40 40 40 38 36 34 34 36 36 34 33 35 37 38 39 40 41 42 42 42 43 43 44 44 44 44 44 44 45 45
41 39 37 37 37 35 30 27 27 27 29 29 30 31 29 26 25 23 24 29 33 37 40 41 40 38 35 32 33 35 36 34 33 34 36 37 38 39 40 41 42 43 43 43 44 45 45 45 45 45 45 45
Wind_Direction
239 242 236 230 230 230 228 228 229 229 229 230 230 231 234 236 236 237 239 241 243 244 246 247 247 248 248 248 248 247 247 248 248 248 247 247 246 246 244 243 242 243 242 244 248 251 253 254 253 252 252 252
239 242 238 231 230 231 229 228 228 228 230 230 230 231 234 236 236 236 238 240 242 244 245 246 247 247 248 248 247 246 246 246 247 248 247 247 247 246 245 242 241 242 241 242 245 248 251 252 252 252 250 251
238 241 238 232 230 231 230 229 228 229 231 231 231 232 233 236 236 236 237 240 241 243 244 246 247 247 247 247 247 245 244 244 245 246 246 247 247 247 246 243 242 241 240 240 242 245 247 249 250 251 251 250
237 238 236 232 230 230 230 229 228 229 232 233 232 233 234 235 236 236 237 239 241 242 244 246 247 247 246 246 246 245 244 243 243 244 245 246 246 246 246 243 242 241 240 240 241 243 245 247 248 249 251 251
237 237 235 232 229 229 229 228 227 228 231 233 234 235 235 235 235 236 237 239 242 243 244 246 247 246 246 246 246 246 244 243 243 242 243 244 245 245 245 243 243 242 241 241 241 242 244 245 247 248 250 252
237 236 235 232 227 228 230 228 228 229 229 232 235 236 236 236 236 236 236 238 241 243 245 246 247 246 246 246 246 246 245 244 243 243 242 242 243 244 244 243 243 242 242 241 241 242 243 244 246 247 249 251
236 235 235 232 228 228 229 228 229 230 229 231 235 237 238 237 237 237 236 238 241 243 245 246 247 247 246 246 246 246 245 245 244 244 243 242 243 243 244 244 243 243 242 242 242 242 243 244 245 246 248 250
237 233 234 233 228 227 228 229 230 230 228 229 232 235 237 238 237 237 237 238 241 243 245 247 247 247 247 246 246 246 245 245 245 244 244 243 243 243 244 244 243 243 243 242 242 243 243 244 244 245 247 249
239 233 232 231 228 226 226 228 231 231 229 227 230 233 235 236 237 237 237 238 241 243 245 247 248 247 247 247 246 246 246 246 246 245 244 244 243 243 243 244 244 244 244 244 243 243 243 244 244 245 247 248
239 234 230 229 228 225 224 228 230 231 231 228 228 231 233 235 235 235 237 238 240 243 246 247 248 248 247 247 246 246 246 246 246 246 245 245 244 243 243 244 245 245 245 245 245 244 244 245 245 246 247 249
237 233 229 227 227 225 224 227 229 232 233 228 226 228 232 233 233 234 236 238 240 242 245 248 249 249 248 247 247 246 246 246 246 247 246 246 245 244 243 244 245 246 246 246 246 246 245 245 246 247 247 249
234 231 230 227 226 225 225 227 230 234 230 223 220 222 228 232 233 234 235 237 238 241 244 247 250 250 250 249 248 247 247 247 247 247 247 247 246 245 244 244 245 246 246 247 247 247 246 246 246 247 248 249
231 231 232 230 226 224 225 227 231 233 228 223 220 220 225 231 233 235 236 237 238 240 243 246 249 250 251 250 249 249 248 247 247 247 247 247 247 247 246 245 245 246 247 247 248 248 248 247 247 247 248 249
230 231 233 232 228 226 226 227 230 233 231 230 228 224 225 229 233 236 237 238 238 239 242 244 247 249 250 251 250 250 249 248 248 248 248 248 248 248 247 246 246 246 247 248 248 249 249 248 248 248 248 249
227 230 233 233 230 228 227 228 231 234 234 234 232 227 225 229 232 236 238 239 240 240 242 244 246 248 250 251 251 251 251 250 249 249 248 248 249 249 248 247 246 246 247 248 248 248 248 248 248 248 248 250
226 229 232 234 232 230 229 229 231 234 233 234 234 228 226 231 233 236 239 240 241 241 242 245 247 249 250 251 252 252 251 251 250 250 250 249 249 250 249 248 247 246 246 247 248 248 248 248 248 249 249 250
227 231 231 235 235 232 232 231 232 235 235 234 235 233 231 233 233 234 237 239 241 242 243 245 248 250 251 252 253 254 253 252 251 251 250 250 250 250 250 250 248 247 246 246 248 248 248 248 248 249 249 250
230 231 228 235 240 239 237 235 235 237 240 238 237 238 235 232 229 230 233 238 241 242 244 246 249 252 253 254 254 254 254 253 252 251 251 250 250 251 251 251 250 249 247 246 247 248 249 249 248 249 250 250
232 230 231 239 240 241 242 239 237 238 240 242 240 241 239 231 225 227 231 236 240 242 246 250 252 254 254 254 254 253 254 254 253 251 250 250 249 250 250 251 250 250 249 247 247 248 249 249 249 249 250 250
228 227 235 242 234 231 237 237 237 238 239 242 242 244 246 237 228 229 233 237 242 246 250 253 254 253 253 253 253 254 254 254 254 253 251 249 249 249 249 250 250 249 249 248 248 247 248 250 250 250 250 251
229 228 234 244 241 237 238 236 235 237 239 241 243 244 246 242 237 238 241 244 248 251 252 253 253 254 254 253 254 255 255 255 255 255 253 251 250 249 249 249 250 250 249 249 249 248 249 249 250 251 251 251
227 227 227 234 242 244 243 239 237 238 239 241 243 244 243 243 244 246 247 249 251 252 252 253 253 254 255 255 256 256 256 256 256 256 255 253 251 250 250 250 250 250 250 250 250 250 250 250 250 251 251 251
224 227 226 228 236 240 240 239 239 240 241 241 241 243 243 243 245 247 248 250 251 251 252 253 254 255 255 255 256 257 257 257 257 257 256 255 253 252 252 251 251 250 251 250 250 250 251 251 251 251 251 251
219 234 238 236 236 239 240 237 237 239 242 244 244 245 244 243 245 247 248 249 249 250 251 253 254 255 255 255 256 256 257 257 258 258 257 256 255 254 253 253 253 251 251 251 251 251 251 251 251 252 252 252
209 216 230 235 233 236 237 232 231 236 240 244 246 247 245 244 245 246 246 247 248 249 250 252 253 254 255 255 256 256 256 256 257 258 258 256 255 254 254 254 254 253 252 252 251 250 250 250 252 253 254 254
230 209 216 223 222 222 221 220 224 232 240 246 247 248 246 243 244 244 244 245 246 247 250 252 253 255 256 255 255 255 255 255 255 256 256 255 255 254 254 254 255 254 253 252 251 250 250 250 251 252 254 255
249 235 220 219 221 221 220 223 226 231 242 247 245 247 244 242 242 242 243 245 245 246 249 251 253 255 256 255 254 253 254 254 254 255 255 254 254 254 254 255 255 255 254 253 253 252 251 251 251 251 253 255
253 252 246 234 228 230 229 228 228 232 242 240 228 233 242 243 242 240 244 247 246 246 248 249 251 252 254 255 253 252 254 255 256 256 256 256 255 255 255 255 256 256 257 256 256 255 254 254 253 253 253 253
255 257 257 248 234 233 235 229 225 226 233 230 217 222 238 246 244 241 245 249 247 247 247 248 249 249 249 250 250 253 255 257 258 258 258 257 256 257 256 256 257 258 259 258 258 258 257 256 255 254 254 253
256 257 259 255 244 242 244 238 231 225 227 225 218 223 234 241 242 242 245 248 247 246 246 246 247 246 246 246 251 255 255 257 261 261 260 258 257 257 256 256 256 257 258 258 259 259 258 258 257 257 256 256
255 256 258 258 254 252 251 243 238 236 236 237 236 237 237 235 232 234 241 244 244 244 244 245 245 245 247 247 251 253 253 257 262 262 261 260 258 256 256 256 256 256 256 257 258 258 259 259 259 258 258 258
Height
5728 5731 5733 5735 5738 5741 5744 5747 5750 5753 5754 5754 5758 5761 5762 5764 5767 5770 5772 5773 5774 5776 5777 5777 5779 5779 5779 5780 5780 5781 5781 5782 5783 5784 5785 5786 5786 5787 5787 5788 5788 5788 5789 5789 5789 5790 5790 5790 5790 5790 5790 5790
5723 5727 5730 5731 5735 5738 5741 5744 5747 5750 5750 5751 5754 5757 5758 5760 5763 5766 5768 5769 5770 5771 5773 5774 5775 5775 5776 5776 5777 5778 5778 5779 5780 5781 5782 5783 5784 5784 5785 5785 5785 5786 5786 5787 5787 5787 5788 5788 5788 5788 5788 5788
5718 5723 5726 5729 5731 5735 5739 5741 5745 5747 5747 5749 5751 5752 5754 5756 5759 5762 5763 5764 5766 5767 5769 5770 5770 5771 5772 5773 5774 5774 5775 5776 5777 5778 5779 5780 5781 5781 5782 5783 5783 5783 5783 5783 5784 5784 5785 5785 5785 5786 5786 5787
5713 5718 5722 5725 5728 5732 5735 5739 5742 5743 5744 5747 5748 5749 5751 5753 5755 5758 5759 5760 5762 5763 5765 5766 5766 5767 5768 5769 5770 5771 5772 5773 5774 5775 5776 5777 5778 5779 5780 5780 5780 5780 5780 5780 5781 5782 5782 5782 5782 5783 5784 5784
5708 5713 5716 5721 5725 5728 5732 5735 5736 5737 5741 5745 5746 5746 5747 5749 5751 5754 5755 5756 5758 5759 5761 5761 5762 5763 5764 5766 5767 5768 5769 5769 5771 5772 5773 5774 5775 5776 5777 5777 5777 5777 5777 5778 5778 5778 5779 5779 5780 5780 5781 5782
5704 5708 5710 5716 5722 5725 5728 5731 5731 5733 5738 5741 5743 5743 5744 5746 5748 5749 5751 5753 5754 5756 5757 5758 5759 5760 5761 5762 5763 5764 5765 5766 5767 5768 5770 5771 5772 5773 5774 5774 5775 5774 5774 5775 5775 5775 5776 5776 5777 5777 5778 5779
5701 5704 5707 5712 5717 5721 5724 5726 5726 5729 5734 5737 5739 5740 5741 5743 5745 5746 5748 5749 5751 5752 5753 5754 5755 5756 5757 5758 5759 5760 5761 5763 5764 5765 5766 5767 5769 5770 5771 5772 5772 5772 5771 5772 5772 5772 5773 5773 5774 5775 5775 5776
5698 5702 5705 5708 5713 5716 5720 5722 5722 5724 5729 5732 5735 5736 5737 5739 5741 5743 5744 5745 5747 5748 5750 5751 5752 5752 5753 5754 5755 5756 5758 5759 5760 5761 5763 5764 5765 5767 5768 5768 5769 5769 5768 5768 5769 5770 5770 5770 5771 5772 5773 5773
5695 5699 5702 5705 5709 5712 5716 5718 5718 5721 5726 5729 5730 5731 5733 5735 5737 5739 5740 5742 5744 5745 5746 5747 5748 5749 5750 5751 5752 5753 5754 5756 5757 5758 5759 5760 5761 5763 5764 5765 5765 5766 5766 5765 5766 5767 5767 5767 5768 5769 5770 5770
5693 5696 5699 5702 5705 5708 5712 5713 5715 5719 5722 5725 5726 5727 5728 5731 5733 5735 5736 5738 5740 5742 5743 5744 5745 5746 5746 5747 5748 5749 5750 5752 5753 5754 5755 5757 5758 5759 5760 5761 5762 5762 5762 5762 5763 5763 5764 5764 5765 5766 5766 5767
5691 5693 5695 5698 5701 5704 5708 5709 5712 5716 5718 5719 5720 5721 5724 5727 5729 5731 5732 5734 5737 5738 5739 5740 5741 5742 5743 5744 5744 5745 5746 5748 5749 5750 5752 5753 5754 5755 5756 5757 5758 5759 5759 5759 5759 5760 5761 5761 5762 5762 5763 5764
5688 5690 5692 5694 5697 5701 5703 5705 5708 5712 5712 5712 5713 5714 5718 5722 5725 5726 5728 5730 5733 5734 5735 5737 5738 5739 5740 5740 5741 5742 5743 5744 5745 5746 5748 5749 5750 5751 5752 5754 5754 5755 5756 5756 5756 5757 5758 5758 5759 5759 5760 5760
5686 5688 5689 5691 5694 5697 5699 5701 5705 5708 5708 5708 5708 5708 5712 5717 5720 5722 5724 5726 5728 5730 5731 5733 5734 5735 5736 5737 5738 5738 5739 5740 5741 5743 5744 5745 5746 5747 5748 5750 5751 5751 5752 5752 5753 5753 5754 5755 5755 5756 5756 5757
5683 5686 5687 5689 5691 5693 5695 5697 5701 5704 5705 5706 5705 5705 5708 5712 5715 5717 5720 5722 5724 5726 5727 5728 5730 5731 5732 5733 5734 5735 5736 5737 5738 5739 5740 5741 5742 5743 5744 5746 5747 5748 5748 5748 5749 5750 5751 5752 5752 5752 5753 5753
5680 5682 5684 5686 5688 5690 5692 5694 5697 5699 5701 5701 5700 5701 5704 5707 5710 5712 5715 5717 5720 5722 5723 5724 5725 5727 5728 5730 5731 5731 5732 5733 5734 5735 5737 5738 5738 5739 5740 5742 5743 5744 5744 5745 5745 5746 5747 5748 5749 5749 5749 5750
5677 5680 5681 5683 5685 5687 5689 5691 5693 5695 5697 5698 5696 5697 5699 5703 5705 5708 5710 5713 5715 5717 5719 5720 5721 5723 5724 5726 5727 5728 5728 5729 5731 5732 5733 5734 5735 5735 5736 5737 5739 5740 5741 5741 5741 5742 5743 5745 5745 5745 5746 5746
5673 5676 5679 5680 5682 5684 5686 5688 5690 5691 5693 5695 5694 5694 5695 5698 5700 5703 5705 5707 5710 5712 5714 5716 5717 5718 5720 5722 5723 5724 5724 5725 5727 5728 5729 5730 5731 5731 5732 5733 5735 5736 5737 5737 5737 5738 5739 5741 5742 5742 5742 5743
5667 5671 5675 5677 5679 5681 5683 5684 5686 5688 5689 5691 5692 5692 5692 5693 5695 5697 5700 5703 5705 5707 5709 5711 5712 5714 5716 5718 5719 5720 5720 5721 5723 5724 5725 5726 5727 5727 5728 5729 5730 5731 5733 5734 5734 5734 5735 5737 5738 5738 5739 5739
5664 5667 5671 5675 5677 5678 5678 5680 5682 5684 5686 5687 5689 5689 5689 5689 5690 5692 5695 5698 5700 5703 5705 5707 5708 5710 5712 5714 5715 5715 5717 5717 5718 5720 5721 5721 5723 5723 5724 5725 5726 5727 5728 5729 5730 5730 5731 5732 5734 5735 5735 5735
5663 5666 5668 5670 5672 5673 5672 5673 5676 5679 5681 5682 5683 5685 5686 5687 5688 5689 5691 5693 5696 5698 5700 5702 5704 5706 5708 5709 5710 5711 5712 5713 5714 5715 5716 5717 5718 5719 5720 5721 5722 5723 5723 5724 5726 5727 5727 5728 5730 5731 5731 5732
5661 5664 5666 5666 5667 5668 5668 5669 5671 5673 5676 5678 5679 5680 5682 5684 5685 5686 5688 5690 5692 5694 5696 5698 5699 5701 5703 5705 5706 5707 5708 5709 5710 5710 5712 5713 5714 5715 5716 5717 5718 5719 5719 5720 5721 5722 5723 5724 5725 5727 5728 5728
5657 5659 5661 5663 5663 5663 5665 5666 5667 5669 5671 5673 5674 5675 5677 5679 5681 5682 5684 5686 5688 5689 5691 5693 5694 5696 5698 5700 5701 5702 5704 5705 5706 5706 5707 5708 5709 5711 5711 5712 5713 5714 5715 5716 5716 5718 5719 5720 5721 5722 5723 5724
5650 5653 5655 5658 5659 5658 5660 5662 5663 5665 5666 5667 5669 5670 5672 5674 5675 5677 5679 5681 5683 5685 5686 5688 5690 5691 5693 5695 5696 5697 5699 5700 5701 5702 5703 5704 5705 5706 5707 5708 5709 5710 5711 5711 5712 5713 5714 5716 5717 5718 5719 5719
5644 5647 5650 5652 5653 5654 5656 5657 5658 5659 5661 5662 5664 5665 5667 5668 5670 5671 5673 5676 5678 5680 5682 5683 5685 5687 5688 5690 5691 5692 5693 5695 5696 5698 5699 5700 5701 5702 5703 5703 5704 5705 5706 5707 5708 5709 5710 5711 5712 5713 5714 5715
5641 5643 5645 5646 5648 5650 5651 5653 5654 5655 5656 5658 5659 5660 5662 5663 5665 5666 5668 5670 5673 5675 5677 5679 5680 5682 5684 5685 5687 5687 5689 5690 5692 5693 5694 5695 5696 5697 5698 5699 5699 5700 5701 5702 5703 5704 5705 5707 5708 5709 5710 5710
5638 5639 5640 5642 5644 5645 5645 5647 5649 5651 5653 5654 5654 5655 5657 5658 5659 5660 5662 5665 5667 5670 5672 5674 5676 5677 5679 5681 5682 5683 5684 5686 5687 5688 5689 5690 5691 5692 5693 5694 5695 5696 5697 5697 5698 5699 5701 5702 5703 5704 5705 5705
5634 5635 5636 5638 5639 5640 5640 5641 5643 5646 5649 5650 5650 5651 5652 5653 5655 5656 5658 5661 5663 5665 5668 5669 5671 5673 5674 5676 5677 5679 5680 5681 5682 5683 5684 5685 5686 5687 5688 5689 5690 5691 5692 5693 5693 5695 5697 5698 5699 5700 5700 5701
5630 5631 5633 5634 5635 5636 5637 5637 5639 5641 5645 5648 5648 5649 5650 5650 5651 5654 5656 5657 5659 5661 5663 5665 5667 5668 5670 5671 5673 5674 5675 5676 5677 5678 5679 5681 5681 5682 5683 5685 5686 5687 5688 5689 5689 5691 5692 5693 5695 5695 5695 5696
5625 5627 5629 5630 5632 5633 5634 5635 5636 5638 5641 5643 5644 5645 5647 5647 5648 5651 5652 5654 5655 5657 5659 5661 5662 5664 5665 5666 5668 5670 5671 5672 5672 5674 5675 5676 5677 5678 5679 5680 5681 5682 5683 5684 5685 5686 5687 5688 5690 5690 5689 5690
5621 5623 5624 5626 5628 5630 5631 5632 5633 5635 5637 5638 5640 5641 5643 5644 5645 5647 5648 5650 5651 5653 5655 5656 5657 5658 5660 5662 5664 5665 5667 5668 5668 5669 5670 5671 5672 5673 5674 5675 5677 5677 5678 5679 5680 5681 5682 5683 5684 5684 5684 5685
5618 5619 5620 5622 5624 5626 5628 5630 5631 5633 5634 5635 5636 5638 5640 5641 5642 5643 5644 5646 5648 5649 5650 5651 5652 5653 5655 5658 5660 5661 5663 5664 5664 5665 5666 5667 5668 5668 5669 5670 5671 5671 5672 5674 5674 5674 5676 5677 5678 5678 5679 5680